星链-32100 (STARLINK-32100 )

导读 | 豆包AI

STARLINK-32100是美国太空探索技术公司SpaceX星链星座中的一颗卫星,于2024年5月8日发射升空。作为星链互联网星座组网卫星,它承担着为全球提供高速宽带互联网服务的任务,服务覆盖偏远地区、海洋、航空等场景,进一步完善了星链星座的全球覆盖与服务能力,延续了SpaceX批量部署星链卫星的进程。

Basic Information
目录编号:
59686
目录名称:
STARLINK-32100
国际标识:
2024-086E
轨道中心:
EARTH
卫星名称:
星链-32100
卫星全名:
星链-32100 (STARLINK-32100 )
卫星状态:
在轨 (已飞行676 天)
发射日期:
2024-05-08 UTC
国别 :
美国 (US)
星等 :
--
Orbit Information
数据来源 国际轨道数据 AOE轨道数据
星历时间 2026-03-15T05:18:35+0800
22小时前
查看轨道信息
2026-03-12T11:00:00+0800
3天前
查看轨道信息
半长轴 6861.187km 6861.188km
偏心率 0.0001167 0.0001914
轨道倾角 43.006° 43.002°
近地点辐角 266.796° 306.091°
升交点赤经 12.434° 28.042°
平近点角 93.276° 322.147°
近地点 482.249km 481.737km
远地点 483.851km 484.365km
周期 94.267分钟 94.267分钟
每日圈数 15.275797 15.275795
Detailed Information
固有亮度:
5
最大亮度:
1.5
卫星平台:
Starlink v2.0 mini
覆盖范围:
全球
运营商:
太空探索技术公司
运营商所在国:
美国
制造商(研发单位):
太空探索技术公司
制造商所在国:
美国
使用方式:
暂无
Satellite Introduction
星链(Starlink)计划是由太空探索技术公司(SpaceX)提出的一个巨型低轨卫星互联网星座项目,计划在2019年至2024年间在太空搭建由约1.2万颗卫星组成的“星链”网络,其中1584颗将部署在地球上空550千米处的近地轨道,并从2020年开始工作。该卫星仍在工作。
2D Orbit Map
3D Orbit Map
Orbit Altitude Analysis Chart
Orbit Inclination Analysis Chart
Orbit Comprehensive Analysis Chart
View Comprehensive Chart